Kosmos-2366

operational
NORAD ID: 25892 Int'l Des: 1999-045 Owner: VMFR Country: RU
LEOCIRCULARPOLAR

About Kosmos-2366

Description loading...

Live Position

Loading 3D Globe...

Upcoming Passes

Altitude History

Altitude vs Time

uPlot chart will show altitude changes over time

Two-Line Element Set

1 25892U 99045A 26061.65087627 .00000064 00000-0 51700-4 0 9996
2 25892 82.9304 203.2222 0030340 296.0432 74.2282 13.74684313330318
Epoch: Mar 2, 2026 • Age: 26 hours

Current Status

Altitude 986.6 km
Velocity 7.37 km/s
Sub-Earth Point -69.59°S, 2.95°W
Launch Date Aug 26, 1999
Age 26.5 years
Type other

Technical Details

Classification Payload
Mass 800.00 kg
Dry Mass 800.00 kg
Total Mass 800.00 kg
Length 5.10 m
Diameter 2.00 m
Span 17.00 m
Shape Cyl + Ant
Manufacturer POL
Bus Type KAUR-1 11F627
Phase Status Unknown Transfer Status
Owner/State VMFR/RU

Large Constellations

Loading constellations...